Location: Ailly
(50.0793°N, 1.9944°E)
Time: 10:10:54
(UTC+00:00)

Cosmos 2181 Rocket - Pass Details

Date: 15 January 2026
Orbit: 952 x 1013 km, 82.9° (Epoch: 18 February)

Event Time Altitude Azimuth Distance (km) Brightness Sun altitude
Rises 05:08:50 0° 349° (N) 3,715 6.9 -24.4°
Reaches altitude 10° 05:11:21 10° 348° (NNW) 2,770 6.2 -23.9°
Maximum altitude 05:17:43 78° 264° (W) 1,032 3.9 -22.9°
Drops below altitude 10° 05:24:07 10° 179° (S) 2,783 6.5 -21.9°
Sets 05:26:39 0° 178° (S) 3,733 7.2 -21.5°
